User: anonymous   Login
Location: Unspecified
(0.0000°N, 0.0000°E)
Time: 04:38:48
(UTC+01:00)
Language:

Envisat - Orbit

View from above orbital plane
View from above orbital plane
View from above satellite
View from above satellite

Ground track
Ground track

The orbit data is extracted from the following two-line orbital elements,

1 27386U 02009A   18023.48696747 -.00000003  00000-0  12731-4 0  9994
2 27386  98.2038  64.2255 0001408  81.5990 278.5360 14.37913841832732
Epoch (UTC): 23 January 2018 11:41:13
Eccentricity: 0.0001408
inclination: 98.2038°
perigee height: 764 km
apogee height: 766 km
right ascension of ascending node: 64.2255°
argument of perigee: 81.5990°
revolutions per day: 14.37913841
mean anomaly at epoch: 278.5360°
orbit number at epoch: 83273

The dashed part of the orbit path shows where the satellite is in the earth's shadow,  

DLR